Time,TemperatureF,DewpointF,PressureIn,WindDirection,WindDirectionDegrees,WindSpeedMPH,WindSpeedGustMPH,Humidity,HourlyPrecipIn,Conditions,Clouds,dailyrainin,SoftwareType,DateUTC
2013-09-11 00:00:00,78.4,63.4,30.07,SW,225,5.8,5.8,60,0.00,,,0.00,VWS V14.01,2013-09-11 05:00:00,
2013-09-11 00:01:00,78.4,63.4,30.07,SW,225,5.8,5.8,60,0.00,,,0.00,VWS V14.01,2013-09-11 05:01:00,
2013-09-11 00:02:00,78.6,63.6,30.07,WSW,248,5.3,5.8,60,0.00,,,0.00,VWS V14.01,2013-09-11 05:02:00,
2013-09-11 00:03:00,78.6,63.6,30.07,WSW,248,5.3,5.3,60,0.00,,,0.00,VWS V14.01,2013-09-11 05:03:00,
2013-09-11 00:04:00,78.6,63.6,30.07,WSW,248,5.3,5.3,60,0.00,,,0.00,VWS V14.01,2013-09-11 05:04:00,
2013-09-11 00:05:00,78.6,63.6,30.07,SW,225,0.0,5.3,60,0.00,,,0.00,VWS V14.01,2013-09-11 05:05:00,
2013-09-11 00:06:00,78.6,63.6,30.07,SW,225,0.0,0.0,60,0.00,,,0.00,VWS V14.01,2013-09-11 05:06:00,
2013-09-11 00:07:00,78.6,63.1,30.07,SSW,202,5.3,5.3,59,0.00,,,0.00,VWS V14.01,2013-09-11 05:07:00,
2013-09-11 00:08:00,78.6,63.1,30.07,SSW,202,5.3,5.3,59,0.00,,,0.00,VWS V14.01,2013-09-11 05:08:00,
2013-09-11 00:09:00,78.8,63.3,30.07,SSW,202,7.6,7.6,59,0.00,,,0.00,VWS V14.01,2013-09-11 05:09:00,
2013-09-11 00:10:00,78.8,63.3,30.07,SSW,202,7.6,7.6,59,0.00,,,0.00,VWS V14.01,2013-09-11 05:10:00,
2013-09-11 00:11:00,78.8,63.3,30.07,SSW,202,7.6,7.6,59,0.00,,,0.00,VWS V14.01,2013-09-11 05:11:00,
2013-09-11 00:12:00,78.9,63.4,30.07,SW,225,5.5,5.5,59,0.00,,,0.00,VWS V14.01,2013-09-11 05:12:00,
2013-09-11 00:13:00,78.9,63.4,30.07,SSW,202,3.3,5.5,59,0.00,,,0.00,VWS V14.01,2013-09-11 05:13:00,
2013-09-11 00:14:00,78.9,63.4,30.07,SSW,202,3.3,3.3,59,0.00,,,0.00,VWS V14.01,2013-09-11 05:14:00,
2013-09-11 00:15:00,78.9,63.4,30.07,SW,225,1.3,3.3,59,0.00,,,0.00,VWS V14.01,2013-09-11 05:15:00,
2013-09-11 00:16:00,78.9,63.4,30.07,SW,225,1.3,1.3,59,0.00,,,0.00,VWS V14.01,2013-09-11 05:16:00,
2013-09-11 00:17:00,78.6,63.1,30.07,SW,225,0.8,1.3,59,0.00,,,0.00,VWS V14.01,2013-09-11 05:17:00,
2013-09-11 00:18:00,78.6,63.1,30.07,SW,225,0.8,0.8,59,0.00,,,0.00,VWS V14.01,2013-09-11 05:18:00,
2013-09-11 00:19:00,78.6,63.1,30.07,SW,225,0.8,0.8,59,0.00,,,0.00,VWS V14.01,2013-09-11 05:19:00,
2013-09-11 00:20:00,78.6,63.6,30.07,SW,225,5.5,5.5,60,0.00,,,0.00,VWS V14.01,2013-09-11 05:20:00,
2013-09-11 00:21:00,78.6,63.6,30.07,SW,225,5.5,5.5,60,0.00,,,0.00,VWS V14.01,2013-09-11 05:21:00,
2013-09-11 00:22:00,78.6,63.6,30.07,SW,225,6.2,6.2,60,0.00,,,0.00,VWS V14.01,2013-09-11 05:22:00,
2013-09-11 00:23:00,78.6,63.6,30.07,SW,225,6.2,6.2,60,0.00,,,0.00,VWS V14.01,2013-09-11 05:23:00,
2013-09-11 00:24:00,78.6,63.6,30.07,SW,225,1.5,6.2,60,0.00,,,0.00,VWS V14.01,2013-09-11 05:24:00,
2013-09-11 00:25:00,78.6,63.6,30.07,SW,225,1.5,1.5,60,0.00,,,0.00,VWS V14.01,2013-09-11 05:25:00,
2013-09-11 00:26:00,78.6,63.6,30.07,SW,225,1.5,1.5,60,0.00,,,0.00,VWS V14.01,2013-09-11 05:26:00,
2013-09-11 00:27:00,78.4,63.4,30.07,SW,225,8.7,8.7,60,0.00,,,0.00,VWS V14.01,2013-09-11 05:27:00,
2013-09-11 00:28:00,78.4,63.4,30.07,SSW,202,3.5,8.7,60,0.00,,,0.00,VWS V14.01,2013-09-11 05:28:00,
2013-09-11 00:29:00,78.4,63.4,30.07,SSW,202,3.5,3.5,60,0.00,,,0.00,VWS V14.01,2013-09-11 05:29:00,
2013-09-11 00:30:00,78.4,63.4,30.07,SW,225,6.0,6.0,60,0.00,,,0.00,VWS V14.01,2013-09-11 05:30:00,
2013-09-11 00:31:00,78.4,63.4,30.07,SW,225,6.0,6.0,60,0.00,,,0.00,VWS V14.01,2013-09-11 05:31:00,
2013-09-11 00:32:00,78.2,63.2,30.07,SW,225,5.3,6.0,60,0.00,,,0.00,VWS V14.01,2013-09-11 05:32:00,
2013-09-11 00:33:00,78.2,63.2,30.07,SW,225,5.3,5.3,60,0.00,,,0.00,VWS V14.01,2013-09-11 05:33:00,
2013-09-11 00:34:00,78.0,63.0,30.07,SW,225,8.2,8.2,60,0.00,,,0.00,VWS V14.01,2013-09-11 05:34:00,
2013-09-11 00:35:00,78.0,63.0,30.07,SW,225,8.2,8.2,60,0.00,,,0.00,VWS V14.01,2013-09-11 05:35:00,
2013-09-11 00:36:00,78.0,63.0,30.07,SW,225,8.2,8.2,60,0.00,,,0.00,VWS V14.01,2013-09-11 05:36:00,
2013-09-11 00:37:00,78.0,63.0,30.07,SSW,202,9.8,9.8,60,0.00,,,0.00,VWS V14.01,2013-09-11 05:37:00,
2013-09-11 00:38:00,78.0,63.0,30.07,SSW,202,9.8,9.8,60,0.00,,,0.00,VWS V14.01,2013-09-11 05:38:00,
2013-09-11 00:39:00,78.4,63.4,30.07,SW,225,8.0,9.8,60,0.00,,,0.00,VWS V14.01,2013-09-11 05:39:00,
2013-09-11 00:40:00,78.4,63.4,30.07,SW,225,8.0,8.0,60,0.00,,,0.00,VWS V14.01,2013-09-11 05:40:00,
2013-09-11 00:41:00,78.4,63.4,30.07,SW,225,8.0,8.0,60,0.00,,,0.00,VWS V14.01,2013-09-11 05:41:00,
2013-09-11 00:42:00,78.4,63.4,30.07,SW,225,5.8,5.8,60,0.00,,,0.00,VWS V14.01,2013-09-11 05:42:00,
2013-09-11 00:43:00,78.6,63.6,30.07,SSW,202,9.6,9.6,60,0.00,,,0.00,VWS V14.01,2013-09-11 05:43:00,
2013-09-11 00:44:00,78.6,63.6,30.07,SSW,202,9.6,9.6,60,0.00,,,0.00,VWS V14.01,2013-09-11 05:44:00,
2013-09-11 00:45:00,78.6,63.6,30.07,SW,225,9.8,9.8,60,0.00,,,0.00,VWS V14.01,2013-09-11 05:45:00,
2013-09-11 00:46:00,78.6,63.6,30.07,SW,225,9.8,9.8,60,0.00,,,0.00,VWS V14.01,2013-09-11 05:46:00,
2013-09-11 00:47:00,78.6,63.1,30.07,SW,225,13.1,13.1,59,0.00,,,0.00,VWS V14.01,2013-09-11 05:47:00,
2013-09-11 00:48:00,78.6,63.1,30.07,SW,225,13.1,13.1,59,0.00,,,0.00,VWS V14.01,2013-09-11 05:48:00,
2013-09-11 00:49:00,78.6,63.1,30.07,SSW,202,11.1,13.1,59,0.00,,,0.00,VWS V14.01,2013-09-11 05:49:00,
2013-09-11 00:50:00,78.6,63.1,30.07,SSW,202,11.1,11.1,59,0.00,,,0.00,VWS V14.01,2013-09-11 05:50:00,
2013-09-11 00:51:00,78.6,63.1,30.07,SSW,202,11.1,11.1,59,0.00,,,0.00,VWS V14.01,2013-09-11 05:51:00,
2013-09-11 00:52:00,78.9,63.4,30.07,SSW,202,12.0,12.0,59,0.00,,,0.00,VWS V14.01,2013-09-11 05:52:00,
2013-09-11 00:53:00,78.9,63.4,30.07,SSW,202,12.0,12.0,59,0.00,,,0.00,VWS V14.01,2013-09-11 05:53:00,
2013-09-11 00:54:00,78.9,63.4,30.07,SSW,202,10.2,12.0,59,0.00,,,0.00,VWS V14.01,2013-09-11 05:54:00,
2013-09-11 00:55:00,78.9,63.4,30.07,SSW,202,10.2,10.2,59,0.00,,,0.00,VWS V14.01,2013-09-11 05:55:00,
2013-09-11 00:56:00,78.9,63.4,30.07,SSW,202,10.2,10.2,59,0.00,,,0.00,VWS V14.01,2013-09-11 05:56:00,
2013-09-11 00:57:00,78.9,63.4,30.07,SSW,202,6.2,6.2,59,0.00,,,0.00,VWS V14.01,2013-09-11 05:57:00,
2013-09-11 00:58:00,78.9,63.4,30.07,SSW,202,15.8,15.8,59,0.00,,,0.00,VWS V14.01,2013-09-11 05:58:00,
2013-09-11 00:59:00,78.9,63.4,30.07,SSW,202,15.8,15.8,59,0.00,,,0.00,VWS V14.01,2013-09-11 05:59:00,
2013-09-11 01:00:00,78.9,63.4,30.07,SSW,202,13.4,15.8,59,0.00,,,0.00,VWS V14.01,2013-09-11 06:00:00,
2013-09-11 01:01:00,78.9,63.4,30.07,SSW,202,13.4,13.4,59,0.00,,,0.00,VWS V14.01,2013-09-11 06:01:00,
2013-09-11 01:02:00,78.9,63.4,30.07,SSW,202,11.1,13.4,59,0.00,,,0.00,VWS V14.01,2013-09-11 06:02:00,
2013-09-11 01:03:00,78.9,63.4,30.08,SSW,202,11.1,11.1,59,0.00,,,0.00,VWS V14.01,2013-09-11 06:03:00,
2013-09-11 01:04:00,78.9,63.4,30.08,SW,225,8.2,11.1,59,0.00,,,0.00,VWS V14.01,2013-09-11 06:04:00,
2013-09-11 01:05:00,78.9,63.4,30.08,SW,225,8.2,8.2,59,0.00,,,0.00,VWS V14.01,2013-09-11 06:05:00,
2013-09-11 01:06:00,78.9,63.4,30.08,SW,225,8.2,8.2,59,0.00,,,0.00,VWS V14.01,2013-09-11 06:06:00,
2013-09-11 01:07:00,78.9,63.4,30.07,SW,225,5.5,8.2,59,0.00,,,0.00,VWS V14.01,2013-09-11 06:07:00,
2013-09-11 01:08:00,78.9,63.4,30.07,SW,225,5.5,5.5,59,0.00,,,0.00,VWS V14.01,2013-09-11 06:08:00,
2013-09-11 01:09:00,78.9,63.4,30.08,SW,225,10.0,10.0,59,0.00,,,0.00,VWS V14.01,2013-09-11 06:09:00,
2013-09-11 01:10:00,78.9,63.4,30.08,SW,225,10.0,10.0,59,0.00,,,0.00,VWS V14.01,2013-09-11 06:10:00,
2013-09-11 01:11:00,78.9,63.4,30.08,SW,225,10.0,10.0,59,0.00,,,0.00,VWS V14.01,2013-09-11 06:11:00,
2013-09-11 01:12:00,78.9,63.4,30.08,SW,225,8.9,8.9,59,0.00,,,0.00,VWS V14.01,2013-09-11 06:12:00,
2013-09-11 01:13:00,78.9,63.4,30.08,SW,225,6.7,8.9,59,0.00,,,0.00,VWS V14.01,2013-09-11 06:13:00,
2013-09-11 01:14:00,78.9,63.4,30.07,SW,225,6.7,6.7,59,0.00,,,0.00,VWS V14.01,2013-09-11 06:14:00,
2013-09-11 01:15:00,78.9,63.4,30.07,SW,225,6.9,6.9,59,0.00,,,0.00,VWS V14.01,2013-09-11 06:15:00,
2013-09-11 01:16:00,78.9,63.4,30.07,SW,225,6.9,6.9,59,0.00,,,0.00,VWS V14.01,2013-09-11 06:16:00,
2013-09-11 01:17:00,78.6,63.1,30.07,SSW,202,7.6,7.6,59,0.00,,,0.00,VWS V14.01,2013-09-11 06:17:00,
2013-09-11 01:18:00,78.6,63.1,30.08,SSW,202,7.6,7.6,59,0.00,,,0.00,VWS V14.01,2013-09-11 06:18:00,
2013-09-11 01:19:00,78.6,63.1,30.08,SW,225,6.0,7.6,59,0.00,,,0.00,VWS V14.01,2013-09-11 06:19:00,
2013-09-11 01:20:00,78.6,63.1,30.08,SW,225,6.0,6.0,59,0.00,,,0.00,VWS V14.01,2013-09-11 06:20:00,
2013-09-11 01:21:00,78.6,63.1,30.08,SW,225,6.0,6.0,59,0.00,,,0.00,VWS V14.01,2013-09-11 06:21:00,
2013-09-11 01:22:00,78.6,63.6,30.07,SW,225,6.4,6.4,60,0.00,,,0.00,VWS V14.01,2013-09-11 06:22:00,
2013-09-11 01:23:00,78.6,63.6,30.08,SW,225,6.4,6.4,60,0.00,,,0.00,VWS V14.01,2013-09-11 06:23:00,
2013-09-11 01:24:00,78.4,63.4,30.08,SW,225,4.0,6.4,60,0.00,,,0.00,VWS V14.01,2013-09-11 06:24:00,
2013-09-11 01:25:00,78.4,63.4,30.08,SW,225,4.0,4.0,60,0.00,,,0.00,VWS V14.01,2013-09-11 06:25:00,
2013-09-11 01:26:00,78.4,63.4,30.08,SSW,202,7.1,7.1,60,0.00,,,0.00,VWS V14.01,2013-09-11 06:26:00,
2013-09-11 01:27:00,78.4,63.4,30.08,SSW,202,7.1,7.1,60,0.00,,,0.00,VWS V14.01,2013-09-11 06:27:00,
2013-09-11 01:28:00,78.4,63.4,30.07,SSW,202,7.8,7.8,60,0.00,,,0.00,VWS V14.01,2013-09-11 06:28:00,
2013-09-11 01:29:00,78.4,63.4,30.08,SSW,202,7.8,7.8,60,0.00,,,0.00,VWS V14.01,2013-09-11 06:29:00,
2013-09-11 01:30:00,78.2,63.2,30.08,SW,225,3.8,7.8,60,0.00,,,0.00,VWS V14.01,2013-09-11 06:30:00,
2013-09-11 01:31:00,78.2,63.2,30.07,SW,225,3.8,3.8,60,0.00,,,0.00,VWS V14.01,2013-09-11 06:31:00,
2013-09-11 01:32:00,78.0,63.5,30.08,SW,225,6.2,6.2,61,0.00,,,0.00,VWS V14.01,2013-09-11 06:32:00,
2013-09-11 01:33:00,78.0,63.5,30.07,SW,225,6.2,6.2,61,0.00,,,0.00,VWS V14.01,2013-09-11 06:33:00,
2013-09-11 01:34:00,78.0,63.5,30.08,SW,225,4.6,6.2,61,0.00,,,0.00,VWS V14.01,2013-09-11 06:34:00,
2013-09-11 01:35:00,78.0,63.5,30.07,SW,225,4.6,4.6,61,0.00,,,0.00,VWS V14.01,2013-09-11 06:35:00,
2013-09-11 01:36:00,78.0,63.5,30.07,SSW,202,6.7,6.7,61,0.00,,,0.00,VWS V14.01,2013-09-11 06:36:00,
2013-09-11 01:37:00,78.0,63.5,30.08,SSW,202,6.7,6.7,61,0.00,,,0.00,VWS V14.01,2013-09-11 06:37:00,
2013-09-11 01:38:00,78.0,63.5,30.08,SSW,202,6.7,6.7,61,0.00,,,0.00,VWS V14.01,2013-09-11 06:38:00,
2013-09-11 01:39:00,78.0,63.5,30.07,West,270,0.6,6.7,61,0.00,,,0.00,VWS V14.01,2013-09-11 06:39:00,
2013-09-11 01:40:00,78.0,63.5,30.08,West,270,0.6,0.6,61,0.00,,,0.00,VWS V14.01,2013-09-11 06:40:00,
2013-09-11 01:41:00,78.0,63.5,30.08,West,270,0.6,0.6,61,0.00,,,0.00,VWS V14.01,2013-09-11 06:41:00,
2013-09-11 01:42:00,77.9,63.4,30.07,SW,225,6.0,6.0,61,0.00,,,0.00,VWS V14.01,2013-09-11 06:42:00,
2013-09-11 01:43:00,77.7,63.2,30.07,SW,225,2.0,6.0,61,0.00,,,0.00,VWS V14.01,2013-09-11 06:43:00,
2013-09-11 01:44:00,77.7,63.2,30.07,SW,225,2.0,2.0,61,0.00,,,0.00,VWS V14.01,2013-09-11 06:44:00,
2013-09-11 01:45:00,77.7,63.7,30.08,West,270,4.9,4.9,62,0.00,,,0.00,VWS V14.01,2013-09-11 06:45:00,
2013-09-11 01:46:00,77.7,63.7,30.08,West,270,4.9,4.9,62,0.00,,,0.00,VWS V14.01,2013-09-11 06:46:00,
2013-09-11 01:47:00,77.7,63.7,30.07,SW,225,4.9,4.9,62,0.00,,,0.00,VWS V14.01,2013-09-11 06:47:00,
2013-09-11 01:48:00,77.7,63.7,30.08,SW,225,4.9,4.9,62,0.00,,,0.00,VWS V14.01,2013-09-11 06:48:00,
2013-09-11 01:49:00,77.7,63.7,30.08,SW,225,4.2,4.9,62,0.00,,,0.00,VWS V14.01,2013-09-11 06:49:00,
2013-09-11 01:50:00,77.5,63.5,30.08,SW,225,4.2,4.2,62,0.00,,,0.00,VWS V14.01,2013-09-11 06:50:00,
2013-09-11 01:51:00,77.5,63.5,30.08,SW,225,4.2,4.2,62,0.00,,,0.00,VWS V14.01,2013-09-11 06:51:00,
2013-09-11 01:52:00,77.5,63.5,30.08,SSW,202,1.7,4.2,62,0.00,,,0.00,VWS V14.01,2013-09-11 06:52:00,
2013-09-11 01:53:00,77.5,63.5,30.08,SSW,202,1.7,1.7,62,0.00,,,0.00,VWS V14.01,2013-09-11 06:53:00,
2013-09-11 01:54:00,77.3,63.3,30.08,SW,225,5.3,5.3,62,0.00,,,0.00,VWS V14.01,2013-09-11 06:54:00,
2013-09-11 01:55:00,77.3,63.3,30.08,SW,225,5.3,5.3,62,0.00,,,0.00,VWS V14.01,2013-09-11 06:55:00,
2013-09-11 01:56:00,77.3,63.3,30.08,SW,225,5.3,5.3,62,0.00,,,0.00,VWS V14.01,2013-09-11 06:56:00,
2013-09-11 01:57:00,77.3,63.3,30.07,WSW,248,0.0,0.0,62,0.00,,,0.00,VWS V14.01,2013-09-11 06:57:00,
2013-09-11 01:58:00,77.1,63.1,30.08,SW,225,0.0,0.0,62,0.00,,,0.00,VWS V14.01,2013-09-11 06:58:00,
2013-09-11 01:59:00,77.1,63.1,30.08,SW,225,0.0,0.0,62,0.00,,,0.00,VWS V14.01,2013-09-11 06:59:00,
2013-09-11 02:00:00,77.1,63.1,30.08,SSW,202,4.6,4.6,62,0.00,,,0.00,VWS V14.01,2013-09-11 07:00:00,
2013-09-11 02:01:00,77.1,63.1,30.08,SSW,202,4.6,4.6,62,0.00,,,0.00,VWS V14.01,2013-09-11 07:01:00,
2013-09-11 02:02:00,77.1,63.5,30.08,SW,225,0.4,4.6,63,0.00,,,0.00,VWS V14.01,2013-09-11 07:02:00,
2013-09-11 02:03:00,77.1,63.5,30.08,SW,225,0.4,0.4,63,0.00,,,0.00,VWS V14.01,2013-09-11 07:03:00,
2013-09-11 02:04:00,77.0,63.5,30.08,SW,225,0.0,0.4,63,0.00,,,0.00,VWS V14.01,2013-09-11 07:04:00,
2013-09-11 02:05:00,77.0,63.5,30.08,SW,225,0.0,0.0,63,0.00,,,0.00,VWS V14.01,2013-09-11 07:05:00,
2013-09-11 02:06:00,77.0,63.5,30.08,SW,225,0.0,0.0,63,0.00,,,0.00,VWS V14.01,2013-09-11 07:06:00,
2013-09-11 02:07:00,76.8,63.3,30.08,WSW,248,3.5,3.5,63,0.00,,,0.00,VWS V14.01,2013-09-11 07:07:00,
2013-09-11 02:08:00,76.8,63.3,30.08,WSW,248,3.5,3.5,63,0.00,,,0.00,VWS V14.01,2013-09-11 07:08:00,
2013-09-11 02:09:00,76.8,63.3,30.08,WSW,248,0.0,3.5,63,0.00,,,0.00,VWS V14.01,2013-09-11 07:09:00,
2013-09-11 02:10:00,76.8,63.3,30.08,WSW,248,0.0,0.0,63,0.00,,,0.00,VWS V14.01,2013-09-11 07:10:00,
2013-09-11 02:11:00,76.8,63.3,30.08,WSW,248,0.0,0.0,63,0.00,,,0.00,VWS V14.01,2013-09-11 07:11:00,
2013-09-11 02:12:00,76.8,63.7,30.08,WNW,292,0.6,0.6,64,0.00,,,0.00,VWS V14.01,2013-09-11 07:12:00,
2013-09-11 02:13:00,76.4,63.3,30.08,WSW,248,0.0,0.6,64,0.00,,,0.00,VWS V14.01,2013-09-11 07:13:00,
2013-09-11 02:14:00,76.4,63.3,30.08,WSW,248,0.0,0.0,64,0.00,,,0.00,VWS V14.01,2013-09-11 07:14:00,
2013-09-11 02:15:00,76.1,63.5,30.08,West,270,0.0,0.0,65,0.00,,,0.00,VWS V14.01,2013-09-11 07:15:00,
2013-09-11 02:16:00,76.1,63.5,30.08,West,270,0.0,0.0,65,0.00,,,0.00,VWS V14.01,2013-09-11 07:16:00,
2013-09-11 02:17:00,75.7,63.1,30.08,WNW,292,0.0,0.0,65,0.00,,,0.00,VWS V14.01,2013-09-11 07:17:00,
2013-09-11 02:18:00,75.7,63.1,30.08,WNW,292,0.0,0.0,65,0.00,,,0.00,VWS V14.01,2013-09-11 07:18:00,
2013-09-11 02:19:00,75.7,63.1,30.08,WNW,292,1.1,1.1,65,0.00,,,0.00,VWS V14.01,2013-09-11 07:19:00,
2013-09-11 02:20:00,75.5,63.4,30.08,WNW,292,1.1,1.1,66,0.00,,,0.00,VWS V14.01,2013-09-11 07:20:00,
2013-09-11 02:21:00,75.5,63.4,30.08,WNW,292,1.1,1.1,66,0.00,,,0.00,VWS V14.01,2013-09-11 07:21:00,
2013-09-11 02:22:00,75.2,63.5,30.08,SSW,202,0.0,0.0,67,0.00,,,0.00,VWS V14.01,2013-09-11 07:22:00,
2013-09-11 02:23:00,75.2,63.5,30.09,SSW,202,0.0,0.0,67,0.00,,,0.00,VWS V14.01,2013-09-11 07:23:00,
2013-09-11 02:24:00,75.0,63.3,30.08,SW,225,0.6,0.6,67,0.00,,,0.00,VWS V14.01,2013-09-11 07:24:00,
2013-09-11 02:25:00,75.0,63.3,30.08,SW,225,0.6,0.6,67,0.00,,,0.00,VWS V14.01,2013-09-11 07:25:00,
2013-09-11 02:26:00,75.0,63.3,30.08,SW,225,0.6,0.6,67,0.00,,,0.00,VWS V14.01,2013-09-11 07:26:00,
2013-09-11 02:27:00,74.8,63.1,30.08,SW,225,0.0,0.0,67,0.00,,,0.00,VWS V14.01,2013-09-11 07:27:00,
2013-09-11 02:28:00,74.8,63.5,30.09,WNW,292,0.0,0.0,68,0.00,,,0.00,VWS V14.01,2013-09-11 07:28:00,
2013-09-11 02:29:00,74.8,63.5,30.09,WNW,292,0.0,0.0,68,0.00,,,0.00,VWS V14.01,2013-09-11 07:29:00,
2013-09-11 02:30:00,74.4,63.2,30.08,WNW,292,0.0,0.0,68,0.00,,,0.00,VWS V14.01,2013-09-11 07:30:00,
2013-09-11 02:31:00,74.4,63.2,30.08,WNW,292,0.0,0.0,68,0.00,,,0.00,VWS V14.01,2013-09-11 07:31:00,
2013-09-11 02:32:00,74.3,63.1,30.08,NW,315,0.0,0.0,68,0.00,,,0.00,VWS V14.01,2013-09-11 07:32:00,
2013-09-11 02:33:00,74.3,63.1,30.08,NW,315,0.0,0.0,68,0.00,,,0.00,VWS V14.01,2013-09-11 07:33:00,
2013-09-11 02:34:00,74.1,63.3,30.08,West,270,0.0,0.0,69,0.00,,,0.00,VWS V14.01,2013-09-11 07:34:00,
2013-09-11 02:35:00,74.1,63.3,30.09,West,270,0.0,0.0,69,0.00,,,0.00,VWS V14.01,2013-09-11 07:35:00,
2013-09-11 02:36:00,74.1,63.3,30.09,West,270,0.0,0.0,69,0.00,,,0.00,VWS V14.01,2013-09-11 07:36:00,
2013-09-11 02:37:00,74.1,63.3,30.09,WSW,248,0.0,0.0,69,0.00,,,0.00,VWS V14.01,2013-09-11 07:37:00,
2013-09-11 02:38:00,74.1,63.3,30.08,WSW,248,0.0,0.0,69,0.00,,,0.00,VWS V14.01,2013-09-11 07:38:00,
2013-09-11 02:39:00,74.1,63.3,30.08,WSW,248,0.0,0.0,69,0.00,,,0.00,VWS V14.01,2013-09-11 07:39:00,
2013-09-11 02:40:00,74.1,63.3,30.08,WSW,248,0.0,0.0,69,0.00,,,0.00,VWS V14.01,2013-09-11 07:40:00,
2013-09-11 02:41:00,74.1,63.3,30.08,WSW,248,0.0,0.0,69,0.00,,,0.00,VWS V14.01,2013-09-11 07:41:00,
2013-09-11 02:42:00,74.1,63.3,30.08,West,270,0.0,0.0,69,0.00,,,0.00,VWS V14.01,2013-09-11 07:42:00,
2013-09-11 02:43:00,74.1,63.7,30.09,West,270,0.0,0.0,70,0.00,,,0.00,VWS V14.01,2013-09-11 07:43:00,
2013-09-11 02:44:00,74.1,63.7,30.09,West,270,0.0,0.0,70,0.00,,,0.00,VWS V14.01,2013-09-11 07:44:00,
2013-09-11 02:45:00,74.1,63.7,30.09,WNW,292,0.0,0.0,70,0.00,,,0.00,VWS V14.01,2013-09-11 07:45:00,
2013-09-11 02:46:00,74.1,63.7,30.09,WNW,292,0.0,0.0,70,0.00,,,0.00,VWS V14.01,2013-09-11 07:46:00,
2013-09-11 02:47:00,73.9,63.5,30.09,WNW,292,0.0,0.0,70,0.00,,,0.00,VWS V14.01,2013-09-11 07:47:00,
2013-09-11 02:48:00,73.9,63.5,30.09,WNW,292,0.0,0.0,70,0.00,,,0.00,VWS V14.01,2013-09-11 07:48:00,
2013-09-11 02:49:00,74.1,63.7,30.09,WNW,292,0.8,0.8,70,0.00,,,0.00,VWS V14.01,2013-09-11 07:49:00,
2013-09-11 02:50:00,74.1,63.7,30.09,WNW,292,0.8,0.8,70,0.00,,,0.00,VWS V14.01,2013-09-11 07:50:00,
2013-09-11 02:51:00,74.1,63.7,30.09,WNW,292,0.8,0.8,70,0.00,,,0.00,VWS V14.01,2013-09-11 07:51:00,
2013-09-11 02:52:00,74.1,63.7,30.09,West,270,2.4,2.4,70,0.00,,,0.00,VWS V14.01,2013-09-11 07:52:00,
2013-09-11 02:53:00,74.1,63.7,30.09,West,270,2.4,2.4,70,0.00,,,0.00,VWS V14.01,2013-09-11 07:53:00,
2013-09-11 02:54:00,74.1,63.7,30.08,SW,225,0.0,2.4,70,0.00,,,0.00,VWS V14.01,2013-09-11 07:54:00,
2013-09-11 02:55:00,74.1,63.7,30.09,SW,225,0.0,0.0,70,0.00,,,0.00,VWS V14.01,2013-09-11 07:55:00,
2013-09-11 02:56:00,74.1,63.7,30.09,SW,225,0.0,0.0,70,0.00,,,0.00,VWS V14.01,2013-09-11 07:56:00,
2013-09-11 02:57:00,74.1,63.3,30.09,West,270,0.0,0.0,69,0.00,,,0.00,VWS V14.01,2013-09-11 07:57:00,
2013-09-11 02:58:00,74.1,63.3,30.09,SW,225,0.0,0.0,69,0.00,,,0.00,VWS V14.01,2013-09-11 07:58:00,
2013-09-11 02:59:00,74.1,63.3,30.09,SW,225,0.0,0.0,69,0.00,,,0.00,VWS V14.01,2013-09-11 07:59:00,
2013-09-11 03:00:00,74.1,63.3,30.08,WSW,248,0.0,0.0,69,0.00,,,0.00,VWS V14.01,2013-09-11 08:00:00,
2013-09-11 03:01:00,74.1,63.3,30.08,WSW,248,0.0,0.0,69,0.00,,,0.00,VWS V14.01,2013-09-11 08:01:00,
2013-09-11 03:02:00,73.9,63.5,30.09,SW,225,0.0,0.0,70,0.00,,,0.00,VWS V14.01,2013-09-11 08:02:00,
2013-09-11 03:03:00,73.9,63.5,30.09,SW,225,0.0,0.0,70,0.00,,,0.00,VWS V14.01,2013-09-11 08:03:00,
2013-09-11 03:04:00,73.7,63.3,30.09,SW,225,0.0,0.0,70,0.00,,,0.00,VWS V14.01,2013-09-11 08:04:00,
2013-09-11 03:05:00,73.7,63.3,30.09,SW,225,0.0,0.0,70,0.00,,,0.00,VWS V14.01,2013-09-11 08:05:00,
2013-09-11 03:06:00,73.7,63.3,30.09,SW,225,0.0,0.0,70,0.00,,,0.00,VWS V14.01,2013-09-11 08:06:00,
2013-09-11 03:07:00,73.5,63.1,30.09,SW,225,0.0,0.0,70,0.00,,,0.00,VWS V14.01,2013-09-11 08:07:00,
2013-09-11 03:08:00,73.5,63.1,30.09,SW,225,0.0,0.0,70,0.00,,,0.00,VWS V14.01,2013-09-11 08:08:00,
2013-09-11 03:09:00,73.2,62.8,30.09,WSW,248,0.0,0.0,70,0.00,,,0.00,VWS V14.01,2013-09-11 08:09:00,
2013-09-11 03:10:00,73.2,62.8,30.09,WSW,248,0.0,0.0,70,0.00,,,0.00,VWS V14.01,2013-09-11 08:10:00,
2013-09-11 03:11:00,73.2,62.8,30.09,WSW,248,0.0,0.0,70,0.00,,,0.00,VWS V14.01,2013-09-11 08:11:00,
2013-09-11 03:12:00,73.2,62.8,30.09,SW,225,0.0,0.0,70,0.00,,,0.00,VWS V14.01,2013-09-11 08:12:00,
2013-09-11 03:13:00,73.0,63.0,30.09,SW,225,0.0,0.0,71,0.00,,,0.00,VWS V14.01,2013-09-11 08:13:00,
2013-09-11 03:14:00,73.0,63.0,30.09,SW,225,0.0,0.0,71,0.00,,,0.00,VWS V14.01,2013-09-11 08:14:00,
2013-09-11 03:15:00,73.0,63.0,30.09,SW,225,1.5,1.5,71,0.00,,,0.00,VWS V14.01,2013-09-11 08:15:00,
2013-09-11 03:16:00,73.0,63.0,30.09,SW,225,1.5,1.5,71,0.00,,,0.00,VWS V14.01,2013-09-11 08:16:00,
2013-09-11 03:17:00,73.0,63.0,30.09,WSW,248,0.0,1.5,71,0.00,,,0.00,VWS V14.01,2013-09-11 08:17:00,
2013-09-11 03:18:00,73.0,63.0,30.09,WSW,248,0.0,0.0,71,0.00,,,0.00,VWS V14.01,2013-09-11 08:18:00,
2013-09-11 03:19:00,73.0,63.0,30.09,WSW,248,0.0,0.0,71,0.00,,,0.00,VWS V14.01,2013-09-11 08:19:00,
2013-09-11 03:20:00,73.2,63.2,30.09,WSW,248,0.0,0.0,71,0.00,,,0.00,VWS V14.01,2013-09-11 08:20:00,
2013-09-11 03:21:00,73.2,63.2,30.09,WSW,248,0.0,0.0,71,0.00,,,0.00,VWS V14.01,2013-09-11 08:21:00,
2013-09-11 03:22:00,73.2,63.2,30.09,WSW,248,0.0,0.0,71,0.00,,,0.00,VWS V14.01,2013-09-11 08:22:00,
2013-09-11 03:23:00,73.2,63.2,30.09,WSW,248,0.0,0.0,71,0.00,,,0.00,VWS V14.01,2013-09-11 08:23:00,
2013-09-11 03:58:00,74.1,63.3,30.09,West,270,0.0,0.0,69,0.00,,,0.00,VWS V14.01,2013-09-11 08:58:00,
2013-09-11 04:58:00,73.6,63.6,30.09,SW,225,0.0,0.0,71,0.00,,,0.00,VWS V14.01,2013-09-11 09:58:00,
2013-09-11 05:58:00,71.4,64.2,19.33,WSW,248,0.0,0.0,78,0.00,,,0.00,VWS V14.01,2013-09-11 10:58:00,
2013-09-11 06:55:00,69.9,63.5,30.15,NE,45,0.0,0.0,80,0.00,,,0.00,VWS V14.01,2013-09-11 11:55:00,
2013-09-11 07:00:00,70.1,63.3,30.14,North,0,4.4,4.4,79,0.00,,,0.00,VWS V14.01,2013-09-11 12:00:00,
2013-09-11 07:05:00,69.9,63.1,30.14,NNE,22,6.9,6.9,79,0.00,,,0.00,VWS V14.01,2013-09-11 12:05:00,
2013-09-11 07:10:00,69.8,63.0,30.14,NE,45,9.8,9.8,79,0.00,,,0.00,VWS V14.01,2013-09-11 12:10:00,
2013-09-11 07:15:00,70.1,62.9,30.14,NNE,22,7.1,7.1,78,0.00,,,0.00,VWS V14.01,2013-09-11 12:15:00,
2013-09-11 07:20:00,70.3,62.8,30.14,NNE,22,6.0,6.0,77,0.00,,,0.00,VWS V14.01,2013-09-11 12:20:00,
2013-09-11 07:25:00,70.3,62.4,30.14,NE,45,4.2,4.2,76,0.00,,,0.00,VWS V14.01,2013-09-11 12:25:00,
2013-09-11 07:30:00,70.3,62.8,30.14,NNE,22,3.3,3.3,77,0.00,,,0.00,VWS V14.01,2013-09-11 12:30:00,
2013-09-11 07:35:00,70.3,62.8,30.14,NNE,22,6.9,6.9,77,0.00,,,0.00,VWS V14.01,2013-09-11 12:35:00,
2013-09-11 07:40:00,70.8,62.5,30.14,NNE,22,6.9,6.9,75,0.00,,,0.00,VWS V14.01,2013-09-11 12:40:00,
2013-09-11 07:45:00,72.1,63.4,30.14,NNE,22,6.4,6.4,74,0.00,,,0.00,VWS V14.01,2013-09-11 12:45:00,
2013-09-11 07:50:00,73.2,63.6,30.14,NE,45,4.6,4.6,72,0.00,,,0.00,VWS V14.01,2013-09-11 12:50:00,
2013-09-11 07:55:00,73.2,63.6,30.14,ENE,68,1.1,1.1,72,0.00,,,0.00,VWS V14.01,2013-09-11 12:55:00,
2013-09-11 08:00:00,74.1,64.1,30.14,ENE,68,3.5,3.5,71,0.00,,,0.00,VWS V14.01,2013-09-11 13:00:00,
2013-09-11 08:05:00,74.8,64.8,30.13,ENE,68,4.4,4.4,71,0.00,,,0.00,VWS V14.01,2013-09-11 13:05:00,
2013-09-11 08:10:00,75.0,64.2,30.14,ENE,68,3.5,3.5,69,0.00,,,0.00,VWS V14.01,2013-09-11 13:10:00,
2013-09-11 08:15:00,74.4,64.0,30.14,NNE,22,5.8,5.8,70,0.00,,,0.00,VWS V14.01,2013-09-11 13:15:00,
2013-09-11 08:20:00,73.5,63.5,30.14,ENE,68,3.3,3.3,71,0.00,,,0.00,VWS V14.01,2013-09-11 13:20:00,
2013-09-11 08:25:00,72.8,62.9,30.13,NE,45,4.2,4.2,71,0.00,,,0.00,VWS V14.01,2013-09-11 13:25:00,
2013-09-11 08:30:00,72.6,62.7,30.14,NNE,22,5.5,5.5,71,0.00,,,0.00,VWS V14.01,2013-09-11 13:30:00,
2013-09-11 08:35:00,72.6,62.7,30.14,NNE,22,5.3,5.3,71,0.00,,,0.00,VWS V14.01,2013-09-11 13:35:00,
2013-09-11 08:40:00,72.6,62.7,30.14,NE,45,0.6,0.6,71,0.00,,,0.00,VWS V14.01,2013-09-11 13:40:00,
2013-09-11 08:45:00,73.0,63.5,30.14,NE,45,2.2,2.2,72,0.00,,,0.00,VWS V14.01,2013-09-11 13:45:00,
2013-09-11 08:50:00,73.7,63.7,30.14,East,90,3.3,3.3,71,0.00,,,0.00,VWS V14.01,2013-09-11 13:50:00,
2013-09-11 08:55:00,75.3,64.0,30.14,NE,45,0.0,0.0,68,0.00,,,0.00,VWS V14.01,2013-09-11 13:55:00,
2013-09-11 09:00:00,75.3,64.0,30.14,NE,45,4.0,4.0,68,0.00,,,0.00,VWS V14.01,2013-09-11 14:00:00,
2013-09-11 09:05:00,77.3,65.1,30.14,East,90,2.9,2.9,66,0.00,,,0.00,VWS V14.01,2013-09-11 14:05:00,
2013-09-11 09:10:00,78.0,64.4,30.14,NE,45,0.4,0.4,63,0.00,,,0.00,VWS V14.01,2013-09-11 14:10:00,
2013-09-11 09:15:00,78.6,64.5,30.14,East,90,0.6,5.3,62,0.00,,,0.00,VWS V14.01,2013-09-11 14:15:00,
2013-09-11 09:20:00,79.7,64.6,30.15,NNE,22,0.0,0.0,60,0.00,,,0.00,VWS V14.01,2013-09-11 14:20:00,
2013-09-11 09:25:00,80.4,64.8,30.15,SE,135,0.0,0.0,59,0.00,,,0.00,VWS V14.01,2013-09-11 14:25:00,
2013-09-11 09:30:00,81.5,63.8,30.15,East,90,0.0,4.4,55,0.00,,,0.00,VWS V14.01,2013-09-11 14:30:00,
2013-09-11 09:35:00,81.5,64.3,30.15,ENE,68,0.0,1.1,56,0.00,,,0.00,VWS V14.01,2013-09-11 14:35:00,
2013-09-11 09:40:00,82.7,65.4,30.15,ESE,112,0.0,0.0,56,0.00,,,0.00,VWS V14.01,2013-09-11 14:40:00,
2013-09-11 09:45:00,84.5,66.1,30.14,SSW,202,0.0,0.0,54,0.00,,,0.00,VWS V14.01,2013-09-11 14:45:00,
2013-09-11 09:50:00,82.2,63.4,30.14,SE,135,0.0,0.0,53,0.00,,,0.00,VWS V14.01,2013-09-11 14:50:00,
2013-09-11 09:55:00,80.4,62.8,30.15,East,90,0.0,0.0,55,0.00,,,0.00,VWS V14.01,2013-09-11 14:55:00,
2013-09-11 10:00:00,80.9,64.2,30.14,NE,45,0.0,0.0,57,0.00,,,0.00,VWS V14.01,2013-09-11 15:00:00,
2013-09-11 10:05:00,82.9,64.6,30.15,East,90,0.0,0.0,54,0.00,,,0.00,VWS V14.01,2013-09-11 15:05:00,
2013-09-11 10:10:00,81.8,64.1,30.15,ESE,112,0.0,0.0,55,0.00,,,0.00,VWS V14.01,2013-09-11 15:10:00,
2013-09-11 10:15:00,82.0,63.7,30.15,SE,135,0.0,0.0,54,0.00,,,0.00,VWS V14.01,2013-09-11 15:15:00,
2013-09-11 10:20:00,82.5,64.2,30.15,South,180,0.0,0.0,54,0.00,,,0.00,VWS V14.01,2013-09-11 15:20:00,
2013-09-11 10:25:00,81.3,63.1,30.15,SSE,158,0.0,0.0,54,0.00,,,0.00,VWS V14.01,2013-09-11 15:25:00,
2013-09-11 10:30:00,82.0,64.8,30.15,ESE,112,0.0,0.0,56,0.00,,,0.00,VWS V14.01,2013-09-11 15:30:00,
2013-09-11 10:35:00,84.7,65.7,30.15,SSW,202,0.0,0.0,53,0.00,,,0.00,VWS V14.01,2013-09-11 15:35:00,
2013-09-11 10:40:00,83.1,64.2,30.15,SSW,202,0.0,0.0,53,0.00,,,0.00,VWS V14.01,2013-09-11 15:40:00,
2013-09-11 10:45:00,82.9,64.6,30.15,SSW,202,0.0,0.0,54,0.00,,,0.00,VWS V14.01,2013-09-11 15:45:00,
2013-09-11 10:50:00,82.5,64.7,30.15,SSW,202,0.0,0.0,55,0.00,,,0.00,VWS V14.01,2013-09-11 15:50:00,
2013-09-11 10:55:00,82.9,65.1,30.15,SSW,202,0.0,0.0,55,0.00,,,0.00,VWS V14.01,2013-09-11 15:55:00,
2013-09-11 11:00:00,83.4,65.6,30.15,SSW,202,0.0,0.0,55,0.00,,,0.00,VWS V14.01,2013-09-11 16:00:00,
2013-09-11 11:05:00,83.4,65.0,30.15,SSW,202,0.0,0.0,54,0.00,,,0.00,VWS V14.01,2013-09-11 16:05:00,
2013-09-11 11:10:00,83.3,65.5,30.15,SSW,202,0.0,0.0,55,0.00,,,0.00,VWS V14.01,2013-09-11 16:10:00,
2013-09-11 11:15:00,83.4,65.6,30.15,SSW,202,0.0,0.0,55,0.00,,,0.00,VWS V14.01,2013-09-11 16:15:00,
2013-09-11 11:20:00,82.9,65.1,30.15,SSW,202,0.0,0.0,55,0.00,,,0.00,VWS V14.01,2013-09-11 16:20:00,
2013-09-11 11:25:00,82.7,64.9,30.15,SSW,202,0.0,0.0,55,0.00,,,0.00,VWS V14.01,2013-09-11 16:25:00,
2013-09-11 11:29:00,82.4,65.1,30.16,NW,315,0.0,0.0,56,0.00,,,0.00,VWS V14.01,2013-09-11 16:29:00,
2013-09-11 11:34:00,82.2,65.5,30.16,NNW,338,0.0,0.0,57,0.00,,,0.00,VWS V14.01,2013-09-11 16:34:00,
2013-09-11 11:39:00,82.0,65.3,30.16,West,270,0.0,0.0,57,0.00,,,0.00,VWS V14.01,2013-09-11 16:39:00,
2013-09-11 11:44:00,82.0,64.8,30.15,WNW,292,0.0,0.0,56,0.00,,,0.00,VWS V14.01,2013-09-11 16:44:00,
2013-09-11 11:49:00,82.2,65.5,30.15,WNW,292,0.0,0.0,57,0.00,,,0.00,VWS V14.01,2013-09-11 16:49:00,
2013-09-11 11:54:00,81.8,64.6,30.15,NNW,338,0.0,0.0,56,0.00,,,0.00,VWS V14.01,2013-09-11 16:54:00,
2013-09-11 11:59:00,80.7,64.1,30.15,NNW,338,0.0,0.0,57,0.00,,,0.00,VWS V14.01,2013-09-11 16:59:00,
2013-09-11 12:04:00,80.2,64.6,30.15,NNW,338,0.0,0.0,59,0.00,,,0.00,VWS V14.01,2013-09-11 17:04:00,
2013-09-11 12:09:00,79.1,65.9,30.16,West,270,0.0,0.0,64,0.00,,,0.00,VWS V14.01,2013-09-11 17:09:00,
2013-09-11 12:14:00,78.0,65.7,30.16,WSW,248,0.0,0.0,66,0.00,,,0.00,VWS V14.01,2013-09-11 17:14:00,
2013-09-11 12:19:00,77.3,66.3,30.15,West,270,0.0,0.0,69,0.00,,,0.00,VWS V14.01,2013-09-11 17:19:00,
2013-09-11 12:24:00,76.6,66.9,30.15,West,270,0.0,0.0,72,0.00,,,0.00,VWS V14.01,2013-09-11 17:24:00,
2013-09-11 12:29:00,76.6,66.1,30.15,West,270,0.0,0.0,70,0.00,,,0.00,VWS V14.01,2013-09-11 17:29:00,
2013-09-11 12:34:00,76.4,66.7,30.15,West,270,0.0,0.0,72,0.00,,,0.00,VWS V14.01,2013-09-11 17:34:00,
2013-09-11 12:39:00,75.9,67.4,30.15,NNW,338,0.0,0.0,75,0.00,,,0.00,VWS V14.01,2013-09-11 17:39:00,
2013-09-11 12:44:00,75.7,67.6,30.15,North,0,3.3,3.3,76,0.00,,,0.00,VWS V14.01,2013-09-11 17:44:00,
2013-09-11 12:49:00,75.3,67.2,30.15,North,0,2.2,2.2,76,0.00,,,0.00,VWS V14.01,2013-09-11 17:49:00,
2013-09-11 12:54:00,75.5,67.4,30.15,North,0,4.2,4.2,76,0.00,,,0.00,VWS V14.01,2013-09-11 17:54:00,
2013-09-11 12:59:00,75.9,67.8,30.15,North,0,5.5,5.5,76,0.00,,,0.00,VWS V14.01,2013-09-11 17:59:00,
2013-09-11 13:04:00,76.4,67.1,30.15,North,0,5.5,5.5,73,0.00,,,0.00,VWS V14.01,2013-09-11 18:04:00,
2013-09-11 13:09:00,77.3,68.0,30.15,NNE,22,1.7,1.7,73,0.00,,,0.00,VWS V14.01,2013-09-11 18:09:00,
2013-09-11 13:14:00,78.2,68.4,30.15,NW,315,0.0,0.0,72,0.00,,,0.00,VWS V14.01,2013-09-11 18:14:00,
2013-09-11 13:19:00,79.1,68.1,30.14,NNW,338,0.0,0.0,69,0.00,,,0.00,VWS V14.01,2013-09-11 18:19:00,
2013-09-11 13:24:00,79.7,68.2,30.14,NNW,338,0.0,0.0,68,0.00,,,0.00,VWS V14.01,2013-09-11 18:24:00,
2013-09-11 13:29:00,80.7,69.2,30.14,WNW,292,0.0,0.0,68,0.00,,,0.00,VWS V14.01,2013-09-11 18:29:00,
2013-09-11 13:34:00,82.0,69.1,30.15,NNW,338,0.0,0.0,65,0.00,,,0.00,VWS V14.01,2013-09-11 18:34:00,
2013-09-11 13:39:00,82.7,68.8,30.14,WNW,292,0.0,0.0,63,0.00,,,0.00,VWS V14.01,2013-09-11 18:39:00,
2013-09-11 13:44:00,83.1,69.2,30.14,NW,315,1.1,1.1,63,0.00,,,0.00,VWS V14.01,2013-09-11 18:44:00,
2013-09-11 13:49:00,83.3,68.0,30.14,WNW,292,0.0,0.0,60,0.00,,,0.00,VWS V14.01,2013-09-11 18:49:00,
2013-09-11 13:54:00,84.0,68.6,30.14,SW,225,0.0,0.0,60,0.00,,,0.00,VWS V14.01,2013-09-11 18:54:00,
2013-09-11 13:59:00,84.5,68.6,30.14,WNW,292,0.0,0.0,59,0.00,,,0.00,VWS V14.01,2013-09-11 18:59:00,
2013-09-11 14:04:00,84.2,67.8,30.14,SW,225,0.0,0.0,58,0.00,,,0.00,VWS V14.01,2013-09-11 19:04:00,
2013-09-11 14:09:00,85.1,68.7,30.14,SW,225,0.0,0.0,58,0.00,,,0.00,VWS V14.01,2013-09-11 19:09:00,
2013-09-11 14:14:00,85.2,68.3,30.14,SSW,202,3.8,3.8,57,0.00,,,0.00,VWS V14.01,2013-09-11 19:14:00,
2013-09-11 14:19:00,85.2,67.8,30.13,SSW,202,0.0,0.0,56,0.00,,,0.00,VWS V14.01,2013-09-11 19:19:00,
2013-09-11 14:24:00,84.9,67.5,30.13,West,270,0.0,0.0,56,0.00,,,0.00,VWS V14.01,2013-09-11 19:24:00,
2013-09-11 14:29:00,85.2,67.8,30.13,WNW,292,0.0,0.0,56,0.00,,,0.00,VWS V14.01,2013-09-11 19:29:00,
2013-09-11 14:34:00,85.8,67.8,30.13,SW,225,0.0,0.0,55,0.00,,,0.00,VWS V14.01,2013-09-11 19:34:00,
2013-09-11 14:39:00,85.4,67.4,30.13,SW,225,1.7,1.7,55,0.00,,,0.00,VWS V14.01,2013-09-11 19:39:00,
2013-09-11 14:44:00,85.1,68.2,30.13,SW,225,0.0,0.0,57,0.00,,,0.00,VWS V14.01,2013-09-11 19:44:00,
2013-09-11 14:49:00,84.9,68.0,30.13,SW,225,5.1,5.1,57,0.00,,,0.00,VWS V14.01,2013-09-11 19:49:00,
2013-09-11 14:54:00,84.9,66.9,30.13,SW,225,3.5,3.5,55,0.00,,,0.00,VWS V14.01,2013-09-11 19:54:00,
2013-09-11 14:59:00,85.1,68.2,30.13,SW,225,4.0,4.0,57,0.00,,,0.00,VWS V14.01,2013-09-11 19:59:00,
2013-09-11 15:04:00,86.7,68.6,30.13,SSW,202,1.1,1.1,55,0.00,,,0.00,VWS V14.01,2013-09-11 20:04:00,
2013-09-11 15:09:00,87.2,67.4,30.12,SSW,202,7.8,7.8,52,0.00,,,0.00,VWS V14.01,2013-09-11 20:09:00,
2013-09-11 15:14:00,87.0,67.8,30.13,SW,225,8.9,8.9,53,0.00,,,0.00,VWS V14.01,2013-09-11 20:14:00,
2013-09-11 15:19:00,88.1,68.3,30.13,SW,225,3.3,3.3,52,0.00,,,0.00,VWS V14.01,2013-09-11 20:19:00,
2013-09-11 15:24:00,87.6,68.4,30.12,SSW,202,9.1,9.1,53,0.00,,,0.00,VWS V14.01,2013-09-11 20:24:00,
2013-09-11 15:29:00,87.2,68.0,30.12,SW,225,6.9,6.9,53,0.00,,,0.00,VWS V14.01,2013-09-11 20:29:00,
2013-09-11 15:34:00,86.5,68.4,30.12,SSW,202,5.8,5.8,55,0.00,,,0.00,VWS V14.01,2013-09-11 20:34:00,
2013-09-11 15:39:00,87.4,68.2,30.12,SSW,202,2.9,2.9,53,0.00,,,0.00,VWS V14.01,2013-09-11 20:39:00,
2013-09-11 15:44:00,87.9,68.1,30.12,SSW,202,4.6,4.6,52,0.00,,,0.00,VWS V14.01,2013-09-11 20:44:00,
2013-09-11 15:49:00,87.6,67.8,30.11,SSW,202,1.3,1.3,52,0.00,,,0.00,VWS V14.01,2013-09-11 20:49:00,
2013-09-11 15:54:00,88.1,68.3,30.11,West,270,2.6,2.6,52,0.00,,,0.00,VWS V14.01,2013-09-11 20:54:00,
2013-09-11 15:59:00,88.5,69.2,30.11,SW,225,0.0,0.0,53,0.00,,,0.00,VWS V14.01,2013-09-11 20:59:00,
2013-09-11 16:04:00,88.8,68.4,30.11,West,270,5.5,5.5,51,0.00,,,0.00,VWS V14.01,2013-09-11 21:04:00,
2013-09-11 16:09:00,86.5,67.9,30.11,SW,225,2.4,2.4,54,0.00,,,0.00,VWS V14.01,2013-09-11 21:09:00,
2013-09-11 16:14:00,86.5,69.0,30.11,SW,225,3.3,3.3,56,0.00,,,0.00,VWS V14.01,2013-09-11 21:14:00,
2013-09-11 16:19:00,86.0,68.5,30.11,SSW,202,3.5,3.5,56,0.00,,,0.00,VWS V14.01,2013-09-11 21:19:00,
2013-09-11 16:24:00,87.0,68.4,30.11,SW,225,8.9,8.9,54,0.00,,,0.00,VWS V14.01,2013-09-11 21:24:00,
2013-09-11 16:29:00,86.9,68.3,30.11,SSW,202,6.0,6.0,54,0.00,,,0.00,VWS V14.01,2013-09-11 21:29:00,
2013-09-11 16:34:00,85.8,67.2,30.11,WNW,292,5.3,5.3,54,0.00,,,0.00,VWS V14.01,2013-09-11 21:34:00,
2013-09-11 16:39:00,84.7,67.3,30.11,WSW,248,0.0,0.0,56,0.00,,,0.00,VWS V14.01,2013-09-11 21:39:00,
2013-09-11 16:44:00,84.5,67.6,30.11,SW,225,0.0,0.0,57,0.00,,,0.00,VWS V14.01,2013-09-11 21:44:00,
2013-09-11 16:49:00,84.7,67.8,30.11,SW,225,0.0,0.0,57,0.00,,,0.00,VWS V14.01,2013-09-11 21:49:00,
2013-09-11 16:54:00,84.7,67.8,30.11,West,270,0.0,0.0,57,0.00,,,0.00,VWS V14.01,2013-09-11 21:54:00,
2013-09-11 16:59:00,84.3,67.9,30.11,SW,225,0.4,0.4,58,0.00,,,0.00,VWS V14.01,2013-09-11 21:59:00,
2013-09-11 17:04:00,84.0,67.1,30.11,WSW,248,0.0,0.0,57,0.00,,,0.00,VWS V14.01,2013-09-11 22:04:00,
2013-09-11 17:09:00,84.0,67.7,30.11,WSW,248,0.0,0.0,58,0.00,,,0.00,VWS V14.01,2013-09-11 22:09:00,
2013-09-11 17:14:00,84.2,67.8,30.10,WNW,292,0.0,0.0,58,0.00,,,0.00,VWS V14.01,2013-09-11 22:14:00,
2013-09-11 17:19:00,85.1,68.2,30.10,WSW,248,0.0,0.0,57,0.00,,,0.00,VWS V14.01,2013-09-11 22:19:00,
2013-09-11 17:24:00,86.1,68.1,30.10,West,270,3.3,3.3,55,0.00,,,0.00,VWS V14.01,2013-09-11 22:24:00,
2013-09-11 17:29:00,85.8,67.8,30.11,NW,315,4.4,4.4,55,0.00,,,0.00,VWS V14.01,2013-09-11 22:29:00,
2013-09-11 17:34:00,84.7,67.3,30.11,WNW,292,0.0,0.0,56,0.00,,,0.00,VWS V14.01,2013-09-11 22:34:00,
2013-09-11 17:39:00,83.4,67.1,30.11,WNW,292,3.8,3.8,58,0.00,,,0.00,VWS V14.01,2013-09-11 22:39:00,
2013-09-11 17:44:00,82.5,66.7,30.11,WNW,292,6.2,6.2,59,0.00,,,0.00,VWS V14.01,2013-09-11 22:44:00,
2013-09-11 17:49:00,82.0,66.8,30.11,WNW,292,1.5,1.5,60,0.00,,,0.00,VWS V14.01,2013-09-11 22:49:00,
2013-09-11 17:54:00,81.5,66.8,30.10,West,270,1.7,1.7,61,0.00,,,0.00,VWS V14.01,2013-09-11 22:54:00,
2013-09-11 17:59:00,81.3,67.1,30.10,WNW,292,0.0,0.0,62,0.00,,,0.00,VWS V14.01,2013-09-11 22:59:00,
2013-09-11 18:04:00,81.1,67.3,30.10,WNW,292,0.0,0.0,63,0.00,,,0.00,VWS V14.01,2013-09-11 23:04:00,
2013-09-11 18:09:00,80.9,67.1,30.10,West,270,0.0,0.0,63,0.00,,,0.00,VWS V14.01,2013-09-11 23:09:00,
2013-09-11 18:14:00,80.9,67.1,30.10,West,270,0.0,0.0,63,0.00,,,0.00,VWS V14.01,2013-09-11 23:14:00,
2013-09-11 18:19:00,80.7,67.8,30.11,SW,225,0.0,0.0,65,0.00,,,0.00,VWS V14.01,2013-09-11 23:19:00,
2013-09-11 18:24:00,79.8,68.3,30.10,SW,225,5.1,5.1,68,0.00,,,0.00,VWS V14.01,2013-09-11 23:24:00,
2013-09-11 18:29:00,78.6,68.4,30.10,SW,225,2.4,2.4,71,0.00,,,0.00,VWS V14.01,2013-09-11 23:29:00,
2013-09-11 18:34:00,77.0,68.1,30.10,SW,225,0.8,0.8,74,0.00,,,0.00,VWS V14.01,2013-09-11 23:34:00,
2013-09-11 18:39:00,76.6,68.1,30.10,SW,225,0.0,0.0,75,0.00,,,0.00,VWS V14.01,2013-09-11 23:39:00,
2013-09-11 18:44:00,76.2,67.7,30.10,SW,225,0.0,0.0,75,0.00,,,0.00,VWS V14.01,2013-09-11 23:44:00,
2013-09-11 18:49:00,75.9,67.8,30.10,SW,225,0.0,0.0,76,0.00,,,0.00,VWS V14.01,2013-09-11 23:49:00,
2013-09-11 18:54:00,75.7,68.0,30.10,West,270,0.0,0.0,77,0.00,,,0.00,VWS V14.01,2013-09-11 23:54:00,
2013-09-11 18:59:00,75.3,67.6,30.10,West,270,0.0,0.0,77,0.00,,,0.00,VWS V14.01,2013-09-11 23:59:00,
2013-09-11 19:04:00,75.3,68.0,30.11,SW,225,0.0,0.0,78,0.00,,,0.00,VWS V14.01,2013-09-12 00:04:00,
2013-09-11 19:09:00,75.3,68.3,30.10,SW,225,0.0,0.0,79,0.00,,,0.00,VWS V14.01,2013-09-12 00:09:00,
2013-09-11 19:14:00,75.3,68.3,30.10,SW,225,0.0,0.0,79,0.00,,,0.00,VWS V14.01,2013-09-12 00:14:00,
2013-09-11 19:19:00,75.0,68.1,30.10,West,270,0.0,0.0,79,0.00,,,0.00,VWS V14.01,2013-09-12 00:19:00,
2013-09-11 19:24:00,75.3,67.6,30.10,WNW,292,0.0,0.0,77,0.00,,,0.00,VWS V14.01,2013-09-12 00:24:00,
2013-09-11 19:29:00,75.3,67.2,30.10,WNW,292,0.0,0.0,76,0.00,,,0.00,VWS V14.01,2013-09-12 00:29:00,
2013-09-11 19:34:00,75.2,67.5,30.10,West,270,0.0,0.0,77,0.00,,,0.00,VWS V14.01,2013-09-12 00:34:00,
2013-09-11 19:39:00,74.8,67.5,30.10,West,270,0.0,0.0,78,0.00,,,0.00,VWS V14.01,2013-09-12 00:39:00,
2013-09-11 19:44:00,74.4,67.1,30.10,WSW,248,0.0,0.0,78,0.00,,,0.00,VWS V14.01,2013-09-12 00:44:00,
2013-09-11 19:49:00,74.8,67.1,30.10,West,270,0.0,0.0,77,0.00,,,0.00,VWS V14.01,2013-09-12 00:49:00,
2013-09-11 19:54:00,74.8,67.1,30.10,West,270,0.0,0.0,77,0.00,,,0.00,VWS V14.01,2013-09-12 00:54:00,
2013-09-11 19:59:00,74.8,67.1,30.10,West,270,0.0,0.0,77,0.00,,,0.00,VWS V14.01,2013-09-12 00:59:00,
2013-09-11 20:04:00,74.6,66.9,30.10,West,270,0.0,0.0,77,0.00,,,0.00,VWS V14.01,2013-09-12 01:04:00,
2013-09-11 20:09:00,74.4,66.7,30.10,West,270,0.0,0.0,77,0.00,,,0.00,VWS V14.01,2013-09-12 01:09:00,
2013-09-11 20:14:00,74.1,66.8,30.10,West,270,0.0,0.0,78,0.00,,,0.00,VWS V14.01,2013-09-12 01:14:00,
2013-09-11 20:19:00,73.7,66.4,30.10,West,270,0.0,0.0,78,0.00,,,0.00,VWS V14.01,2013-09-12 01:19:00,
2013-09-11 20:24:00,73.4,66.5,30.10,West,270,0.0,0.0,79,0.00,,,0.00,VWS V14.01,2013-09-12 01:24:00,
2013-09-11 20:29:00,73.2,66.3,30.10,West,270,0.0,0.0,79,0.00,,,0.00,VWS V14.01,2013-09-12 01:29:00,
2013-09-11 20:34:00,72.5,65.6,30.11,West,270,0.0,0.0,79,0.00,,,0.00,VWS V14.01,2013-09-12 01:34:00,
2013-09-11 20:39:00,72.1,65.6,30.11,West,270,0.0,0.0,80,0.00,,,0.00,VWS V14.01,2013-09-12 01:39:00,
2013-09-11 20:44:00,71.7,65.2,30.11,West,270,0.0,0.0,80,0.00,,,0.00,VWS V14.01,2013-09-12 01:44:00,
2013-09-11 20:49:00,71.2,65.1,30.11,West,270,0.0,0.0,81,0.00,,,0.00,VWS V14.01,2013-09-12 01:49:00,
2013-09-11 20:54:00,71.2,65.1,30.11,West,270,0.0,0.0,81,0.00,,,0.00,VWS V14.01,2013-09-12 01:54:00,
2013-09-11 20:59:00,71.2,65.4,30.11,WSW,248,0.0,0.0,82,0.00,,,0.00,VWS V14.01,2013-09-12 01:59:00,
2013-09-11 21:04:00,71.2,65.8,30.12,WSW,248,0.0,0.0,83,0.00,,,0.00,VWS V14.01,2013-09-12 02:04:00,
2013-09-11 21:09:00,71.0,65.6,30.11,WSW,248,0.0,0.0,83,0.00,,,0.00,VWS V14.01,2013-09-12 02:09:00,
2013-09-11 21:14:00,70.7,65.3,30.12,WSW,248,0.0,0.0,83,0.00,,,0.00,VWS V14.01,2013-09-12 02:14:00,
2013-09-11 21:19:00,70.3,64.9,30.11,WSW,248,0.0,0.0,83,0.00,,,0.00,VWS V14.01,2013-09-12 02:19:00,
2013-09-11 21:24:00,70.1,64.7,30.11,West,270,0.0,0.0,83,0.00,,,0.00,VWS V14.01,2013-09-12 02:24:00,
2013-09-11 21:29:00,69.9,64.8,30.12,WSW,248,0.0,0.0,84,0.00,,,0.00,VWS V14.01,2013-09-12 02:29:00,
2013-09-11 21:34:00,69.6,64.6,30.12,WSW,248,0.0,0.0,84,0.00,,,0.00,VWS V14.01,2013-09-12 02:34:00,
2013-09-11 21:39:00,69.4,64.4,30.11,West,270,0.0,0.0,84,0.00,,,0.00,VWS V14.01,2013-09-12 02:39:00,
2013-09-11 21:44:00,69.0,64.0,30.11,West,270,0.0,0.0,84,0.00,,,0.00,VWS V14.01,2013-09-12 02:44:00,
2013-09-11 21:49:00,68.5,63.8,30.11,WNW,292,0.0,0.0,85,0.00,,,0.00,VWS V14.01,2013-09-12 02:49:00,
2013-09-11 21:54:00,68.3,63.6,30.11,WNW,292,0.0,0.0,85,0.00,,,0.00,VWS V14.01,2013-09-12 02:54:00,
2013-09-11 21:59:00,68.1,63.4,30.11,WNW,292,0.0,0.0,85,0.00,,,0.00,VWS V14.01,2013-09-12 02:59:00,
2013-09-11 22:04:00,67.8,63.1,30.11,WNW,292,0.0,0.0,85,0.00,,,0.00,VWS V14.01,2013-09-12 03:04:00,
2013-09-11 22:09:00,67.6,62.9,30.12,WNW,292,0.0,0.0,85,0.00,,,0.00,VWS V14.01,2013-09-12 03:09:00,
2013-09-11 22:14:00,67.4,62.7,30.11,WNW,292,0.0,0.0,85,0.00,,,0.00,VWS V14.01,2013-09-12 03:14:00,
2013-09-11 22:19:00,67.6,62.9,30.12,WNW,292,0.0,0.0,85,0.00,,,0.00,VWS V14.01,2013-09-12 03:19:00,
2013-09-11 22:24:00,67.8,63.1,30.12,WNW,292,0.0,0.0,85,0.00,,,0.00,VWS V14.01,2013-09-12 03:24:00,
2013-09-11 22:29:00,67.8,63.1,30.12,WNW,292,0.0,0.0,85,0.00,,,0.00,VWS V14.01,2013-09-12 03:29:00,
2013-09-11 22:34:00,68.1,63.4,30.12,West,270,0.0,0.0,85,0.00,,,0.00,VWS V14.01,2013-09-12 03:34:00,
2013-09-11 22:39:00,68.5,63.8,30.11,West,270,0.0,0.0,85,0.00,,,0.00,VWS V14.01,2013-09-12 03:39:00,
2013-09-11 22:44:00,68.7,63.7,30.12,WNW,292,0.0,0.0,84,0.00,,,0.00,VWS V14.01,2013-09-12 03:44:00,
2013-09-11 22:49:00,69.0,64.0,30.11,WNW,292,0.0,0.0,84,0.00,,,0.00,VWS V14.01,2013-09-12 03:49:00,
2013-09-11 22:54:00,69.0,63.6,30.11,West,270,0.0,0.0,83,0.00,,,0.00,VWS V14.01,2013-09-12 03:54:00,
2013-09-11 22:59:00,68.9,63.5,30.11,West,270,0.0,0.0,83,0.00,,,0.00,VWS V14.01,2013-09-12 03:59:00,
2013-09-11 23:01:00,68.7,63.3,30.11,West,270,0.0,0.0,83,0.00,,,0.00,VWS V14.01,2013-09-12 04:01:00,
2013-09-11 23:06:00,68.1,62.8,30.12,West,270,0.0,0.0,83,0.00,,,0.00,VWS V14.01,2013-09-12 04:06:00,
2013-09-11 23:11:00,67.8,62.5,30.11,West,270,0.0,0.0,83,0.00,,,0.00,VWS V14.01,2013-09-12 04:11:00,
2013-09-11 23:16:00,67.2,62.2,30.12,WNW,292,0.0,0.0,84,0.00,,,0.00,VWS V14.01,2013-09-12 04:16:00,
2013-09-11 23:21:00,67.1,62.1,30.12,WNW,292,0.0,0.0,84,0.00,,,0.00,VWS V14.01,2013-09-12 04:21:00,
2013-09-11 23:26:00,67.1,62.1,30.11,WNW,292,0.0,0.0,84,0.00,,,0.00,VWS V14.01,2013-09-12 04:26:00,
2013-09-11 23:31:00,67.2,62.5,30.11,WNW,292,0.0,0.0,85,0.00,,,0.00,VWS V14.01,2013-09-12 04:31:00,
2013-09-11 23:36:00,67.6,62.9,30.11,WNW,292,3.1,3.1,85,0.00,,,0.00,VWS V14.01,2013-09-12 04:36:00,
2013-09-11 23:41:00,67.6,62.9,30.11,WNW,292,0.0,0.0,85,0.00,,,0.00,VWS V14.01,2013-09-12 04:41:00,
2013-09-11 23:46:00,67.8,62.8,30.11,WNW,292,0.0,0.0,84,0.00,,,0.00,VWS V14.01,2013-09-12 04:46:00,
2013-09-11 23:51:00,67.8,62.8,30.11,WNW,292,1.7,1.7,84,0.00,,,0.00,VWS V14.01,2013-09-12 04:51:00,
2013-09-11 23:56:00,67.8,62.8,30.11,WNW,292,0.0,0.0,84,0.00,,,0.00,VWS V14.01,2013-09-12 04:56:00,